GW3385 Weather Reports


time (UTC)temp
F
wind
direction
speed
knots
gust
knots
rain 1hr
in
rain 24hr
in
rain mn
in
humidity
%
barometer
mb
20260502205054 65 133 5.2 11.3 0.00 0.00 0.00 79 1012.3
20260502204555 65 278 5.2 12.2 0.00 0.00 0.00 78 1012.2
20260502204051 65 159 5.2 12.2 0.00 0.00 0.00 78 1012.3
20260502203551 65 188 4.3 11.3 0.00 0.00 0.00 79 1012.2
20260502203055 65 201 3.5 9.6 0.00 0.00 0.00 79 1012.3
20260502202551 65 225 5.2 9.6 0.00 0.00 0.00 79 1012.3
20260502202051 65 193 4.3 9.6 0.00 0.00 0.00 79 1012.4
20260502201603 65 205 3.5 7.0 0.00 0.00 0.00 79 1012.3
20260502201051 65 241 3.5 7.0 0.00 0.00 0.00 79 1012.3
20260502200554 65 247 3.5 7.8 0.00 0.00 0.00 79 1012.3
20260502200105 65 295 3.5 7.8 0.00 0.00 0.00 80 1012.4
20260502195550 65 265 2.6 8.7 0.00 0.00 0.00 80 1012.3
20260502195051 64 225 3.5 8.7 0.00 0.00 0.00 80 1012.5
20260502194619 64 267 3.5 11.3 0.00 0.00 0.00 82 1012.7
20260502194051 64 267 3.5 11.3 0.00 0.00 0.00 82 1012.7
20260502193551 64 260 4.3 9.6 0.00 0.00 0.00 81 1012.7
20260502193101 64 213 4.3 9.6 0.00 0.00 0.00 82 1012.9
20260502192553 63 158 4.3 11.3 0.00 0.00 0.00 82 1012.9
20260502192051 63 231 4.3 11.3 0.00 0.00 0.00 82 1013.0
20260502191600 63 264 5.2 11.3 0.00 0.00 0.00 82 1013.1
20260502191141 63 272 6.1 11.3 0.00 0.00 0.00 82 1013.1
20260502190553 64 213 3.5 8.7 0.00 0.00 0.00 81 1013.1
20260502190106 64 197 3.5 8.7 0.00 0.00 0.00 80 1013.2
20260502185557 64 257 1.7 7.8 0.00 0.00 0.00 81 1013.3
20260502185058 64 182 3.5 7.8 0.00 0.00 0.00 81 1013.6
20260502184600 64 294 1.7 6.1 0.00 0.00 0.00 82 1013.5
20260502184054 63 279 0.0 5.2 0.00 0.00 0.00 84 1013.4
20260502183555 62 86 0.9 5.2 0.00 0.00 0.00 84 1013.6
20260502183054 62 171 0.0 5.2 0.00 0.00 0.00 84 1013.6
20260502182552 62 155 1.7 5.2 0.00 0.00 0.00 83 1013.5
20260502182051 62 231 0.0 3.5 0.00 0.00 0.00 85 1013.6
20260502181556 62 0 0.0 2.6 0.00 0.00 0.00 85 1013.5
20260502181056 62 34 0.9 4.3 0.00 0.00 0.00 86 1013.4
20260502180556 61 0 0.9 4.3 0.00 0.00 0.00 86 1013.6
20260502180122 61 153 0.9 4.3 0.00 0.00 0.00 87 1013.6
20260502164058 59 0 0.0 2.6 0.00 0.00 0.00 90 1014.2
20260502163556 59 283 0.0 3.5 0.00 0.00 0.00 90 1014.1
20260502163057 59 98 0.0 6.1 0.00 0.00 0.00 91 1014.0
20260502162552 58 0 1.7 6.1 0.00 0.00 0.00 91 1014.0
20260502162053 58 99 0.0 5.2 0.00 0.00 0.00 91 1014.0
20260502161559 58 0 0.0 5.2 0.00 0.00 0.00 91 1014.0
20260502161051 58 140 0.0 3.5 0.00 0.00 0.00 91 1014.1
20260502160556 58 0 0.0 5.2 0.00 0.00 0.00 91 1014.0
20260502152059 57 107 0.0 2.6 0.00 0.00 0.00 93 1013.8
20260502151605 57 0 0.9 2.6 0.00 0.00 0.00 93 1013.6
20260502151059 57 78 0.0 4.3 0.00 0.00 0.00 93 1013.5
20260502150556 57 80 0.9 4.3 0.00 0.00 0.00 93 1013.5
20260502130558 57 0 0.0 1.7 0.00 0.00 0.00 94 1012.8
20260502130104 57 216 0.0 6.1 0.00 0.00 0.00 93 1012.7
20260502123555 57 0 0.9 5.2 0.00 0.00 0.00 93 1012.7
20260502123101 57 291 1.7 5.2 0.00 0.00 0.00 93 1012.7
20260502122551 57 298 2.6 6.1 0.00 0.00 0.00 93 1012.6
20260502122056 57 260 1.7 7.0 0.00 0.00 0.00 93 1012.6
20260502121603 57 296 2.6 7.0 0.00 0.00 0.00 93 1012.5
20260502121053 57 0 0.0 6.1 0.00 0.00 0.00 93 1012.5
20260502120552 57 204 2.6 6.1 0.00 0.00 0.00 93 1012.5
20260502115553 57 254 0.9 3.5 0.00 0.00 0.00 93 1012.6
20260502115052 57 267 1.7 5.2 0.00 0.00 0.00 93 1012.5
20260502114557 57 279 2.6 5.2 0.00 0.00 0.00 93 1012.5
20260502114051 57 0 0.9 4.3 0.00 0.00 0.00 93 1012.3
20260502113553 57 0 0.9 4.3 0.00 0.00 0.00 93 1012.4
20260502113055 57 226 1.7 3.5 0.00 0.00 0.00 93 1012.3
20260502112554 57 0 0.0 4.3 0.00 0.00 0.00 93 1012.3
20260502112057 57 0 0.9 4.3 0.00 0.00 0.00 93 1012.2
20260502111600 57 232 0.9 6.1 0.00 0.00 0.00 93 1012.2
20260502111055 57 302 2.6 6.1 0.00 0.00 0.00 93 1012.2
20260502110552 57 0 0.9 5.2 0.00 0.00 0.00 93 1012.3
20260502110054 57 287 0.9 5.2 0.00 0.00 0.00 93 1012.3
20260502105552 57 288 0.9 2.6 0.00 0.00 0.00 93 1012.1
20260502105051 57 0 0.0 2.6 0.00 0.00 0.00 93 1012.1
20260502104553 57 275 0.0 3.5 0.00 0.00 0.00 93 1012.1
20260502104051 56 266 1.7 3.5 0.00 0.00 0.00 93 1012.1
20260502103551 56 264 0.9 6.1 0.00 0.00 0.00 93 1012.0
20260502103103 57 0 0.0 6.1 0.00 0.00 0.00 93 1012.0
20260502102551 56 205 2.6 6.1 0.00 0.00 0.00 93 1012.1
20260502102052 56 279 0.9 2.6 0.00 0.00 0.00 93 1012.0
20260502101620 56 0 0.0 4.3 0.00 0.00 0.00 93 1012.1
20260502101055 56 0 0.9 4.3 0.00 0.00 0.00 93 1012.1
20260502100555 56 218 0.9 5.2 0.00 0.00 0.00 93 1012.1
20260502100113 56 251 1.7 6.1 0.00 0.00 0.00 92 1012.0
20260502091051 57 279 0.9 3.5 0.00 0.00 0.00 91 1012.2
20260502090552 57 278 0.9 3.5 0.00 0.00 0.00 91 1012.2
20260502080105 57 344 1.7 3.5 0.00 0.00 0.00 90 1012.8
20260502071054 58 0 0.0 1.7 0.00 0.00 0.00 89 1013.1
20260502070555 58 0 0.0 1.7 0.00 0.00 0.00 89 1013.1
20260502070057 58 0 0.0 1.7 0.00 0.00 0.00 89 1013.2
20260502065555 58 0 0.0 2.6 0.00 0.00 0.00 89 1013.2
20260502065055 58 41 0.9 2.6 0.00 0.00 0.00 89 1013.1
20260502064602 58 42 0.9 2.6 0.00 0.00 0.00 89 1013.1
20260502064051 58 57 0.0 1.7 0.00 0.00 0.00 89 1013.1
20260502063551 58 0 0.0 1.7 0.00 0.00 0.00 89 1013.0
20260502063104 58 0 0.0 2.6 0.00 0.00 0.00 89 1013.0
20260502062552 58 0 0.0 5.2 0.00 0.00 0.00 89 1013.0
20260502062052 58 68 1.7 5.2 0.00 0.00 0.00 89 1012.9
20260502061557 58 114 0.9 5.2 0.00 0.00 0.00 89 1012.9
20260502061053 58 107 0.9 4.3 0.00 0.00 0.00 89 1012.9
20260502060555 58 68 1.7 3.5 0.00 0.00 0.00 89 1012.9
20260502060109 58 0 0.9 3.5 0.00 0.00 0.00 89 1012.9
20260502055552 59 53 0.9 3.5 0.00 0.00 0.00 89 1013.0
20260502055051 59 51 0.9 3.5 0.00 0.00 0.00 89 1012.9
20260502054555 58 0 0.0 3.5 0.00 0.00 0.00 89 1012.9
20260502054054 59 24 0.9 3.5 0.00 0.00 0.00 89 1012.9
20260502053551 59 28 0.0 2.6 0.00 0.00 0.00 89 1013.1
20260502053106 59 0 0.9 2.6 0.00 0.00 0.00 88 1013.0
20260502052551 59 97 0.0 3.5 0.00 0.00 0.00 89 1012.9
20260502052057 59 0 0.9 5.2 0.00 0.00 0.00 88 1012.9
20260502051603 59 0 0.9 5.2 0.00 0.00 0.00 88 1012.9
20260502051052 59 82 0.9 3.5 0.00 0.00 0.00 88 1012.8
20260502050553 59 0 0.0 2.6 0.00 0.00 0.00 88 1012.8
20260502050059 59 69 0.0 2.6 0.00 0.00 0.00 88 1012.7
20260502045552 59 0 0.0 3.5 0.00 0.00 0.00 88 1012.5
20260502045053 59 0 0.0 3.5 0.00 0.00 0.00 88 1012.6
20260502044553 59 0 1.7 3.5 0.00 0.00 0.00 87 1012.6
20260502044054 59 74 0.0 3.5 0.00 0.00 0.00 88 1012.6
20260502043554 59 0 0.0 4.3 0.00 0.00 0.00 88 1012.4
20260502043110 59 157 0.0 4.3 0.00 0.00 0.00 87 1012.4
20260502042552 59 224 0.0 3.5 0.00 0.00 0.00 88 1012.4
20260502042052 59 0 0.0 3.5 0.00 0.00 0.00 88 1012.3
20260502041555 59 66 0.9 4.3 0.00 0.00 0.00 87 1012.2
20260502041054 60 164 0.9 5.2 0.00 0.00 0.00 87 1012.2
20260502040551 60 0 0.0 5.2 0.00 0.00 0.00 87 1012.2
20260502040057 60 197 0.0 3.5 0.00 0.00 0.00 88 1012.2
20260502035554 60 182 0.9 3.5 0.00 0.00 0.00 88 1012.2
20260502035054 60 202 0.0 1.7 0.00 0.00 0.00 88 1012.0
20260502034558 59 0 0.0 2.6 0.00 0.00 0.00 88 1011.9
20260502034055 59 0 0.9 3.5 0.00 0.00 0.00 88 1011.8
20260502033556 59 144 0.9 3.5 0.00 0.00 0.00 88 1011.8
20260502033057 59 221 0.9 4.3 0.00 0.00 0.00 88 1011.7
20260502032557 59 221 1.7 4.3 0.00 0.00 0.00 88 1011.7
20260502032056 59 220 0.9 4.3 0.00 0.00 0.00 88 1011.5
20260502031554 59 0 0.9 6.1 0.00 0.00 0.00 88 1011.4
20260502031057 59 275 1.7 6.1 0.00 0.00 0.00 88 1011.4
20260502030556 60 276 3.5 6.1 0.00 0.00 0.00 87 1011.4
20260502030056 60 281 3.5 8.7 0.00 0.00 0.00 87 1011.3
20260502025556 60 271 4.3 8.7 0.00 0.00 0.00 87 1011.3
20260502025056 60 276 4.3 7.8 0.00 0.00 0.00 86 1011.2
20260502024554 61 284 1.7 7.8 0.00 0.00 0.00 86 1011.3
20260502024056 60 229 2.6 9.6 0.00 0.00 0.00 86 1011.3
20260502023556 60 322 6.1 9.6 0.00 0.00 0.00 85 1011.3
20260502023057 61 277 6.1 8.7 0.00 0.00 0.00 84 1011.3
20260502022557 61 218 3.5 8.7 0.00 0.00 0.00 85 1011.2
20260502022056 61 225 2.6 8.7 0.00 0.00 0.00 85 1011.2
20260502021555 61 242 4.3 8.7 0.00 0.00 0.00 85 1011.1
20260502021057 61 284 5.2 10.4 0.00 0.00 0.00 84 1011.1
20260502020557 62 282 6.1 10.4 0.00 0.00 0.00 83 1011.0
20260502020056 62 311 3.5 8.7 0.00 0.00 0.00 84 1011.1
20260502015556 62 184 3.5 10.4 0.00 0.00 0.00 84 1010.9
20260502015057 62 221 3.5 11.3 0.00 0.00 0.00 84 1010.9
20260502014558 62 277 7.8 11.3 0.00 0.00 0.00 82 1010.8
20260502014056 62 216 3.5 10.4 0.00 0.00 0.00 82 1010.8
20260502013559 63 272 5.2 10.4 0.00 0.00 0.00 82 1010.8
20260502013059 63 259 5.2 10.4 0.00 0.00 0.00 82 1010.8
20260502012556 63 321 4.3 10.4 0.00 0.00 0.00 81 1010.8
20260502012056 63 286 7.0 10.4 0.00 0.00 0.00 80 1010.8
20260502011611 63 239 5.2 9.6 0.00 0.00 0.00 80 1010.8
20260502011058 63 219 3.5 9.6 0.00 0.00 0.00 80 1010.8
20260502010556 63 242 2.6 13.0 0.00 0.00 0.00 81 1010.8
20260502010057 63 250 7.0 13.0 0.00 0.00 0.00 81 1010.8
20260502005557 63 270 6.1 13.0 0.00 0.00 0.00 81 1010.8
20260502005100 63 273 7.8 12.2 0.00 0.00 0.00 79 1010.9
20260502004607 64 269 7.0 12.2 0.00 0.00 0.00 79 1010.8
20260502004059 64 250 7.0 12.2 0.00 0.00 0.00 79 1010.9
20260502003555 64 272 7.0 12.2 0.00 0.00 0.00 78 1010.9
20260502003052 65 281 6.1 12.2 0.00 0.00 0.00 77 1010.9
20260502002551 65 126 7.0 11.3 0.00 0.00 0.00 77 1010.8
20260502002055 66 233 4.3 10.4 0.00 0.00 0.00 77 1010.7
20260502001554 65 306 4.3 11.3 0.00 0.00 0.00 77 1010.8
20260502001054 65 282 4.3 11.3 0.00 0.00 0.00 76 1010.8
20260502000554 65 216 4.3 13.0 0.00 0.00 0.00 77 1010.9
20260502000111 65 292 6.1 13.0 0.00 0.00 0.00 79 1010.9
20260501235555 65 270 7.0 13.0 0.00 0.00 0.00 77 1010.9
20260501235051 65 282 7.0 13.0 0.00 0.00 0.00 77 1010.9
20260501234553 65 211 6.1 13.0 0.00 0.00 0.00 78 1010.8
20260501234053 65 186 7.8 13.0 0.00 0.00 0.00 78 1010.8
20260501233554 65 292 7.0 13.0 0.00 0.00 0.00 76 1011.0
20260501233056 65 203 7.0 14.8 0.00 0.00 0.00 77 1010.9
20260501232555 65 295 7.0 16.5 0.00 0.00 0.00 77 1010.9
20260501232056 66 248 8.7 16.5 0.00 0.00 0.00 76 1011.0
20260501231602 67 244 3.5 12.2 0.00 0.00 0.00 76 1011.0
20260501231051 66 215 5.2 13.0 0.00 0.00 0.00 76 1010.9
20260501230555 67 209 7.8 13.0 0.00 0.00 0.00 76 1011.0
20260501230055 66 238 4.3 13.0 0.00 0.00 0.00 76 1011.1
20260501225552 66 182 6.1 12.2 0.00 0.00 0.00 76 1011.1
20260501225052 67 294 6.1 12.2 0.00 0.00 0.00 76 1011.1
20260501224602 67 171 5.2 10.4 0.00 0.00 0.00 76 1011.1
20260501224051 67 236 4.3 9.6 0.00 0.00 0.00 76 1011.3
20260501223553 67 183 4.3 10.4 0.00 0.00 0.00 76 1011.3
20260501223109 67 317 5.2 12.2 0.00 0.00 0.00 76 1011.4
20260501222551 67 194 4.3 12.2 0.00 0.00 0.00 76 1011.4
20260501222058 66 254 5.2 12.2 0.00 0.00 0.00 77 1011.6
20260501221614 66 193 7.0 12.2 0.00 0.00 0.00 76 1011.7
20260501221055 66 262 8.7 12.2 0.00 0.00 0.00 75 1011.8
20260501220555 67 225 6.1 10.4 0.00 0.00 0.00 74 1011.8
20260501220056 67 280 3.5 8.7 0.00 0.00 0.00 74 1011.9
20260501215557 67 241 2.6 8.7 0.00 0.00 0.00 74 1011.9
20260501215055 67 209 3.5 8.7 0.00 0.00 0.00 74 1012.0
20260501214555 67 164 4.3 10.4 0.00 0.00 0.00 75 1012.1
20260501214054 67 206 4.3 10.4 0.00 0.00 0.00 74 1012.1
20260501213555 66 245 6.1 10.4 0.00 0.00 0.00 74 1012.3
20260501213056 67 177 4.3 10.4 0.00 0.00 0.00 73 1012.3
20260501212553 67 195 3.5 13.0 0.00 0.00 0.00 74 1012.3
20260501212051 67 252 4.3 13.0 0.00 0.00 0.00 74 1012.5
20260501211556 67 180 4.3 11.3 0.00 0.00 0.00 73 1012.5
20260501211051 67 296 3.5 11.3 0.00 0.00 0.00 72 1012.5
20260501210554 67 254 3.5 8.7 0.00 0.00 0.00 73 1012.5
20260501210054 67 185 2.6 7.0 0.00 0.00 0.00 73 1012.6
20260501205555 67 180 3.5 7.8 0.00 0.00 0.00 72 1012.6